• In Hungary
  • List of Countries
  • For 7 days
  • Water Temperature
  • Satellite Maps
  • Weather Map
  • News
  • Weather Widgets
  • user-avatar
    Login

    Hourly Weather Radenii Vechi

    Today, 22 October, Monday

    Time Temperature Precipitation Wind Pressure Humidity
    00:00 +8°C° 0 mm 3 mps 741 mmHg 73%
    01:00 +8°C° 0 mm 3 mps 741 mmHg 76%
    02:00 +7°C° 0 mm 3 mps 741 mmHg 78%
    03:00 +7°C° 0 mm 3 mps 741 mmHg 79%
    04:00 +5°C° 0 mm 3 mps 741 mmHg 81%
    05:00 +5°C° 0 mm 3 mps 741 mmHg 82%
    06:00 +5°C° 0 mm 3 mps 741 mmHg 79%
    07:00 +7°C° 0 mm 3 mps 741 mmHg 75%
    08:00 +7°C° 0 mm 3 mps 741 mmHg 72%
    09:00 +9°C° 0 mm 3 mps 741 mmHg 64%
    10:00 +10°C° 0 mm 3 mps 741 mmHg 57%
    11:00 +12°C° 0 mm 4 mps 741 mmHg 49%
    12:00 +13°C° 0 mm 3 mps 741 mmHg 46%
    13:00 +13°C° 0 mm 3 mps 740 mmHg 44%
    14:00 +14°C° 0 mm 3 mps 740 mmHg 41%
    15:00 +14°C° 0 mm 2 mps 739 mmHg 43%
    16:00 +13°C° 0 mm 2 mps 739 mmHg 45%
    17:00 +12°C° 0 mm 2 mps 739 mmHg 47%
    18:00 +11°C° 0 mm 1 mps 739 mmHg 49%
    19:00 +10°C° 0 mm 1 mps 739 mmHg 51%
    20:00 +10°C° 0 mm 1 mps 739 mmHg 53%
    21:00 +9°C° 0 mm 1 mps 739 mmHg 54%
    22:00 +9°C° 0 mm 1 mps 739 mmHg 55%
    23:00 +8°C° 0 mm 1 mps 739 mmHg 57%

    Tomorrow, 23 October, Tuesday

    Time Temperature Precipitation Wind Pressure Humidity
    00:00 +8°C° 0 mm 1 mps 738 mmHg 58%
    01:00 +8°C° 0 mm 1 mps 738 mmHg 59%
    02:00 +8°C° 0 mm 1 mps 738 mmHg 60%
    03:00 +7°C° 0 mm 1 mps 738 mmHg 62%
    04:00 +7°C° 0 mm 1 mps 738 mmHg 63%
    05:00 +7°C° 0 mm 1 mps 737 mmHg 64%
    06:00 +8°C° 0 mm 1 mps 737 mmHg 63%
    07:00 +8°C° 0 mm 1 mps 737 mmHg 61%
    08:00 +9°C° 0 mm 1 mps 738 mmHg 60%
    09:00 +9°C° 0 mm 2 mps 737 mmHg 56%
    10:00 +12°C° 0 mm 2 mps 737 mmHg 51%
    11:00 +12°C° 0 mm 3 mps 737 mmHg 47%
    12:00 +13°C° 0 mm 3 mps 736 mmHg 47%
    13:00 +13°C° 0 mm 3 mps 735 mmHg 47%
    14:00 +14°C° 0 mm 3 mps 735 mmHg 47%
    15:00 +13°C° 0 mm 3 mps 734 mmHg 50%
    16:00 +13°C° 0 mm 2 mps 734 mmHg 54%
    17:00 +12°C° 0 mm 2 mps 733 mmHg 57%
    18:00 +12°C° 0 mm 1 mps 732 mmHg 59%
    19:00 +11°C° 0 mm 1 mps 732 mmHg 61%
    20:00 +10°C° 0 mm 1 mps 731 mmHg 63%
    21:00 +10°C° 0.1 mm 2 mps 731 mmHg 63%
    22:00 +10°C° 0.1 mm 3 mps 730 mmHg 64%
    23:00 +10°C° 0.1 mm 4 mps 729 mmHg 64%

    Day after tomorrow, 24 October, Wednesday

    Time Temperature Precipitation Wind Pressure Humidity
    00:00 +9°C° 0.1 mm 5 mps 728 mmHg 62%
    01:00 +9°C° 0.1 mm 6 mps 727 mmHg 61%
    02:00 +9°C° 0.1 mm 7 mps 726 mmHg 59%
    03:00 +9°C° 0.1 mm 6 mps 726 mmHg 58%
    04:00 +9°C° 0.1 mm 6 mps 725 mmHg 58%
    05:00 +8°C° 0.1 mm 5 mps 724 mmHg 57%
    06:00 +9°C° 0 mm 6 mps 723 mmHg 55%
    07:00 +9°C° 0 mm 6 mps 722 mmHg 53%
    08:00 +10°C° 0 mm 7 mps 721 mmHg 51%
    09:00 +11°C° 0.3 mm 7 mps 720 mmHg 50%
    10:00 +12°C° 0.3 mm 8 mps 720 mmHg 48%
    11:00 +13°C° 0.3 mm 9 mps 719 mmHg 46%
    12:00 +12°C° 1.1 mm 9 mps 719 mmHg 47%
    13:00 +10°C° 1.1 mm 9 mps 719 mmHg 49%
    14:00 +8°C° 1.1 mm 9 mps 719 mmHg 50%
    15:00 +7°C° 0 mm 9 mps 719 mmHg 46%
    16:00 +6°C° 0 mm 9 mps 720 mmHg 43%
    17:00 +5°C° 0 mm 9 mps 721 mmHg 39%
    18:00 +3°C° 0.2 mm 9 mps 721 mmHg 45%
    19:00 +3°C° 0.2 mm 10 mps 721 mmHg 50%
    20:00 +2°C° 0.2 mm 10 mps 722 mmHg 56%
    21:00 +2°C° 0 mm 10 mps 722 mmHg 55%
    22:00 +2°C° 0 mm 10 mps 722 mmHg 55%
    23:00 +1°C° 0 mm 9 mps 722 mmHg 54%

    25 October, Thursday

    Time Temperature Precipitation Wind Pressure Humidity
    00:00 +2°C° 0 mm 10 mps 722 mmHg 55%
    01:00 +2°C° 0 mm 10 mps 723 mmHg 56%
    02:00 +2°C° 0 mm 11 mps 723 mmHg 56%
    03:00 +2°C° 0.2 mm 11 mps 723 mmHg 58%
    04:00 +2°C° 0.2 mm 11 mps 723 mmHg 59%
    05:00 +2°C° 0.2 mm 11 mps 724 mmHg 61%
    06:00 +3°C° 0.3 mm 11 mps 724 mmHg 61%
    07:00 +3°C° 0.3 mm 11 mps 725 mmHg 62%
    08:00 +3°C° 0.3 mm 11 mps 726 mmHg 63%
    09:00 +3°C° 0 mm 11 mps 727 mmHg 60%
    10:00 +4°C° 0 mm 11 mps 727 mmHg 58%
    11:00 +4°C° 0 mm 12 mps 728 mmHg 55%
    12:00 +4°C° 0 mm 11 mps 728 mmHg 54%
    13:00 +4°C° 0 mm 11 mps 729 mmHg 52%
    14:00 +6°C° 0 mm 11 mps 729 mmHg 51%
    15:00 +5°C° 0 mm 10 mps 730 mmHg 52%
    16:00 +5°C° 0 mm 9 mps 730 mmHg 53%
    17:00 +4°C° 0 mm 8 mps 731 mmHg 54%
    18:00 +4°C° 0 mm 7 mps 731 mmHg 56%
    19:00 +3°C° 0 mm 5 mps 732 mmHg 58%
    20:00 +3°C° 0 mm 4 mps 732 mmHg 59%
    21:00 +3°C° 0 mm 3 mps 732 mmHg 60%
    22:00 +3°C° 0 mm 3 mps 732 mmHg 61%
    23:00 +2°C° 0 mm 3 mps 732 mmHg 61%

    26 October, Friday

    Time Temperature Precipitation Wind Pressure Humidity
    00:00 +3°C° 0.2 mm 3 mps 732 mmHg 60%
    01:00 +3°C° 0.2 mm 4 mps 732 mmHg 59%
    02:00 +4°C° 0.2 mm 4 mps 732 mmHg 58%
    03:00 +4°C° 0.1 mm 4 mps 732 mmHg 57%
    04:00 +4°C° 0.1 mm 4 mps 732 mmHg 56%
    05:00 +4°C° 0.1 mm 4 mps 732 mmHg 55%
    06:00 +5°C° 0 mm 4 mps 732 mmHg 56%
    07:00 +5°C° 0 mm 4 mps 732 mmHg 56%
    08:00 +6°C° 0 mm 4 mps 733 mmHg 57%
    09:00 +8°C° 0 mm 5 mps 733 mmHg 54%
    10:00 +10°C° 0 mm 6 mps 733 mmHg 50%
    11:00 +12°C° 0 mm 7 mps 733 mmHg 47%
    12:00 +13°C° 0 mm 6 mps 733 mmHg 46%
    13:00 +14°C° 0 mm 5 mps 733 mmHg 44%
    14:00 +14°C° 0 mm 5 mps 733 mmHg 43%
    15:00 +13°C° 0 mm 4 mps 734 mmHg 46%
    16:00 +13°C° 0 mm 2 mps 734 mmHg 50%
    17:00 +12°C° 0 mm 1 mps 734 mmHg 53%
    18:00 +11°C° 0 mm 1 mps 734 mmHg 55%
    19:00 +11°C° 0 mm 1 mps 734 mmHg 57%
    20:00 +10°C° 0 mm 1 mps 735 mmHg 59%
    21:00 +9°C° 0 mm 2 mps 735 mmHg 61%
    22:00 +8°C° 0 mm 2 mps 735 mmHg 63%
    23:00 +8°C° 0 mm 2 mps 735 mmHg 65%

    27 October, Saturday

    Time Temperature Precipitation Wind Pressure Humidity
    00:00 +7°C° 0 mm 2 mps 735 mmHg 67%
    01:00 +7°C° 0 mm 2 mps 734 mmHg 69%
    02:00 +7°C° 0 mm 2 mps 734 mmHg 71%
    03:00 +7°C° 0 mm 2 mps 734 mmHg 71%
    04:00 +6°C° 0 mm 2 mps 734 mmHg 71%
    05:00 +6°C° 0 mm 2 mps 734 mmHg 71%
    06:00 +7°C° 0 mm 3 mps 734 mmHg 68%
    07:00 +8°C° 0 mm 3 mps 733 mmHg 65%
    08:00 +8°C° 0 mm 3 mps 733 mmHg 62%
    09:00 +10°C° 0 mm 3 mps 733 mmHg 57%
    10:00 +12°C° 0 mm 4 mps 733 mmHg 52%
    11:00 +14°C° 0 mm 4 mps 733 mmHg 48%
    12:00 +15°C° 0 mm 4 mps 733 mmHg 46%
    13:00 +17°C° 0 mm 4 mps 733 mmHg 44%
    14:00 +18°C° 0 mm 4 mps 732 mmHg 41%
    15:00 +17°C° 0 mm 4 mps 732 mmHg 42%
    16:00 +17°C° 0 mm 4 mps 732 mmHg 42%
    17:00 +15°C° 0 mm 4 mps 732 mmHg 43%
    18:00 +15°C° 0 mm 4 mps 732 mmHg 42%
    19:00 +14°C° 0 mm 4 mps 732 mmHg 41%
    20:00 +13°C° 0 mm 4 mps 732 mmHg 40%
    21:00 +13°C° 0 mm 4 mps 732 mmHg 41%
    22:00 +13°C° 0 mm 4 mps 732 mmHg 41%
    23:00 +12°C° 0 mm 4 mps 732 mmHg 42%
    Show more